User: anonymous   Login
Location: Owatonna
(44.0840°N, 93.2260°W)
Time: 15:46:28
(UTC-05:00)
Language:

Tiangong 1 - Orbit

View from above orbital plane
View from above orbital plane
View from above satellite
View from above satellite

Ground track
Ground track

The orbit data is extracted from the following two-line orbital elements,

1 37820U 11053A   16212.49593697  .00009267  00000-0  97873-4 0  9996
2 37820  42.7642 347.9767 0015376 338.1879 102.6314 15.64287392277360
Epoch (UTC): 30 July 2016 11:54:08
Eccentricity: 0.0015376
inclination: 42.7642°
perigee height: 365 km
apogee height: 385 km
right ascension of ascending node: 347.9767°
argument of perigee: 338.1879°
revolutions per day: 15.64287392
mean anomaly at epoch: 102.6314°
orbit number at epoch: 27736

The dashed part of the orbit path shows where the satellite is in the earth's shadow,  

DLR